Terug naar catalogus

STARLINK-35070

ActiefCommunicatieVLEO
NORAD 65680·PAYLOAD·🇺🇸 United States

Gelanceerd Sep 21, 2025 vanaf Cape Canaveral Space Force Station

Loading…

Volgende Passages (komende 24 uur)

TLE

VersSource: CelesTrak SupGP

Epoch: Sep 15, 2026, 02:50 UTC

1 65680C 25212E   26258.11854167 -.00038792  00000+0 -12475-2 0  2582
2 65680  53.1573 184.8815 0001281  83.8538 104.2135 15.31720422    17

Volg STARLINK-35070 in realtime met AllMySat

Download on the App Store